Simultaneous Nadir Overpasses (SNOs) Predictions

Prediction of SNOs between GOES-15 and METOP-B Satellite Orbit:

Table of predicted SNOs for the next 14.0 days since TLE Epoch: 9/3/2022
Index Date Time (GOES-15) GOES-15 Lat,Lon METOP-B Lat,Lon Distance(km) Time Diff (sec)
1 09/03/2022 06:02:33 0.19,-127.85 0.03,-128.51 75.25 80
2 09/04/2022 05:44:32 0.17,-127.83 1.12,-123.51 492.09 80
3 09/05/2022 18:00:43 -0.20,-127.87 -0.14,-128.07 23.92 80
4 09/08/2022 05:59:02 0.21,-127.74 0.21,-127.67 7.78 80
5 09/10/2022 17:59:53 -0.23,-127.74 -0.34,-127.23 57.47 80
6 09/12/2022 06:16:12 0.25,-127.64 -0.68,-131.83 476.93 80
7 09/13/2022 05:58:12 0.24,-127.62 0.41,-126.83 89.79 80
8 09/14/2022 18:14:23 -0.26,-127.63 0.55,-131.40 428.66 80
9 09/15/2022 17:56:22 -0.24,-127.60 -0.49,-126.38 138.46 80
